Location: *
(32.8140°S, 174.6161°E)
Time: 05:44:41
(UTC+00:00)

Cosmos 1697 Rocket - Pass Details

Date: 10 December 2019
Orbit: 834 x 842 km, 71.0° (Epoch: 21 January)

Event Time Altitude Azimuth Distance (km) Brightness Sun altitude
Exits shadow 13:26:07 59° 172° (S) 971 3.1 -31.7°
Drops below altitude 10° 13:30:43 10° 161° (SSE) 2,481 6.0 -31.4°
Sets 13:33:11 0° 160° (SSE) 3,424 7.0 -31.2°
